This is the latest recevied weather packets stored in our database for station/object KG7FOQ-13. If no packets are shown the sender has not sent any weather packets the latest 1 day(s).
| Time | Temp. | Humidity | Pressure | Rain* | Wind** | Luminosity | Snow |
|---|---|---|---|---|---|---|---|
| 1778011151 | 18.33° C | 33% | 1009.2 hPa | 0 mm | 5.36 m/s, 80° | - | - |
| 1778011102 | 18.33° C | 33% | 1009.2 hPa | 0 mm | 5.36 m/s, 80° | - | - |
| 1778010833 | 17.78° C | 34% | 1009.3 hPa | 0 mm | 5.36 m/s, 17° | - | - |
| 1778010800 | 17.78° C | 34% | 1009.3 hPa | 0 mm | 5.36 m/s, 17° | - | - |
| 1778010501 | 17.78° C | 35% | 1009.2 hPa | 0 mm | 4.92 m/s, 60° | - | - |
| 1778010198 | 17.78° C | 35% | 1009.3 hPa | 0 mm | 7.6 m/s, 27° | - | - |
| 1778009897 | 17.78° C | 34% | 1009.3 hPa | 0 mm | 8.05 m/s, 55° | - | - |
| 1778009596 | 17.78° C | 36% | 1009.3 hPa | 0 mm | 6.26 m/s, 31° | - | - |
| 1778009447 | 17.22° C | 38% | 1009.5 hPa | 0 mm | 6.71 m/s, 76° | - | - |
| 1778009296 | 17.22° C | 38% | 1009.5 hPa | 0 mm | 6.71 m/s, 76° | - | - |
| 1778008995 | 17.78° C | 38% | 1009.5 hPa | 0 mm | 4.92 m/s, 62° | - | - |
| 1778008738 | 18.33° C | 39% | 1009.5 hPa | 0 mm | 4.92 m/s, 59° | - | - |
| 1778008695 | 18.33° C | 39% | 1009.5 hPa | 0 mm | 4.92 m/s, 59° | - | - |
| 1778008395 | 17.22° C | 38% | 1009.3 hPa | 0 mm | 7.15 m/s, 41° | - | - |
| 1778008094 | 17.22° C | 38% | 1009.3 hPa | 0 mm | 8.05 m/s, 27° | - | - |
| 1778007793 | 17.22° C | 39% | 1009.3 hPa | 0 mm | 5.36 m/s, 42° | - | - |
| 1778007493 | 17.22° C | 43% | 1009.3 hPa | 0 mm | 5.81 m/s, 7° | - | - |
| 1778007192 | 16.67° C | 43% | 1009.3 hPa | 0 mm | 7.6 m/s, 59° | - | - |
| 1778006591 | 16.67° C | 44% | 1009.3 hPa | 0 mm | 7.6 m/s, 39° | - | - |
| 1778005990 | 16.67° C | 45% | 1009.5 hPa | 0 mm | 9.83 m/s, 38° | - | - |
| 1778005690 | 16.11° C | 44% | 1009.5 hPa | 0 mm | 7.15 m/s, 49° | - | - |
| 1778005389 | 15.56° C | 45% | 1009.5 hPa | 0 mm | 9.83 m/s, 35° | - | - |
| 1778005089 | 16.11° C | 50% | 1009.5 hPa | 0 mm | 7.15 m/s, 35° | - | - |
| 1778004788 | 16.67° C | 50% | 1009.5 hPa | 0 mm | 7.15 m/s, 27° | - | - |
| 1778004488 | 15.56° C | 48% | 1009.6 hPa | 0 mm | 9.39 m/s, 31° | - | - |
* Rain latest hour (hover to see other rain measurements)
** Current wind speed in m/s (hover to see current wind gust speed)